Time,TemperatureF,DewpointF,PressureIn,WindDirection,WindDirectionDegrees,WindSpeedMPH,WindSpeedGustMPH,Humidity,HourlyPrecipIn,Conditions,Clouds,dailyrainin,SoftwareType,DateUTC
2013-01-05 00:00:00,50.0,46.0,30.17,NW,307,0.0,1.0,86,0.00,RA,,0.00,WeatherDisplay:10.37,2013-01-04 23:00:00,
2013-01-05 00:10:00,50.0,46.0,30.17,NW,315,3.0,4.0,86,0.00,OVC,,0.00,WeatherDisplay:10.37,2013-01-04 23:10:00,
2013-01-05 00:20:00,50.0,45.7,30.18,NW,315,0.0,0.0,85,0.00,OVC,,0.00,WeatherDisplay:10.37,2013-01-04 23:20:00,
2013-01-05 00:30:00,50.0,45.7,30.17,NW,323,0.0,2.0,85,0.00,OVC,,0.00,WeatherDisplay:10.37,2013-01-04 23:30:00,
2013-01-05 00:40:00,50.2,45.5,30.17,WSW,253,1.0,1.0,84,0.00,OVC,,0.00,WeatherDisplay:10.37,2013-01-04 23:40:00,
2013-01-05 00:50:00,50.2,45.2,30.17,WNW,292,1.0,2.0,83,0.00,OVC,,0.00,WeatherDisplay:10.37,2013-01-04 23:50:00,
2013-01-05 01:00:00,50.4,45.1,30.17,WNW,302,3.0,3.0,82,0.00,OVC,,0.00,WeatherDisplay:10.37,2013-01-05 00:00:00,
2013-01-05 01:10:00,50.4,45.1,30.17,WNW,292,3.0,3.0,82,0.00,OVC,,0.00,WeatherDisplay:10.37,2013-01-05 00:10:00,
2013-01-05 01:20:00,50.4,45.1,30.17,NW,325,3.0,8.0,82,0.00,OVC,,0.00,WeatherDisplay:10.37,2013-01-05 00:20:00,
2013-01-05 01:30:00,50.5,45.2,30.17,WNW,292,3.0,4.0,82,0.00,OVC,,0.00,WeatherDisplay:10.37,2013-01-05 00:30:00,
2013-01-05 01:41:00,50.4,44.7,30.18,NNW,332,5.0,9.0,81,0.00,OVC,,0.00,WeatherDisplay:10.37,2013-01-05 00:41:00,
2013-01-05 01:50:00,50.2,44.9,30.17,NW,311,3.0,10.0,82,0.00,OVC,,0.00,WeatherDisplay:10.37,2013-01-05 00:50:00,
2013-01-05 02:01:00,49.8,44.5,30.18,NW,306,6.0,10.0,82,0.00,OVC,,0.00,WeatherDisplay:10.37,2013-01-05 01:01:00,
2013-01-05 02:10:00,49.8,44.5,30.18,NW,315,3.0,3.0,82,0.00,OVC,,0.00,WeatherDisplay:10.37,2013-01-05 01:10:00,
2013-01-05 02:20:00,49.8,44.5,30.18,WNW,300,2.0,2.0,82,0.00,OVC,,0.00,WeatherDisplay:10.37,2013-01-05 01:20:00,
2013-01-05 02:30:00,49.8,44.5,30.17,NW,326,0.0,0.0,82,0.00,OVC,,0.00,WeatherDisplay:10.37,2013-01-05 01:30:00,
2013-01-05 02:40:00,49.8,44.5,30.18,WNW,301,2.0,3.0,82,0.00,OVC,,0.00,WeatherDisplay:10.37,2013-01-05 01:40:00,
2013-01-05 02:50:00,49.8,44.5,30.18,SSW,213,1.0,1.0,82,0.00,OVC,,0.00,WeatherDisplay:10.37,2013-01-05 01:50:00,
2013-01-05 03:00:00,49.8,44.5,30.18,WNW,292,2.0,3.0,82,0.00,OVC,,0.00,WeatherDisplay:10.37,2013-01-05 02:00:00,
2013-01-05 03:10:00,50.0,44.7,30.18,South,183,1.0,1.0,82,0.00,OVC,,0.00,WeatherDisplay:10.37,2013-01-05 02:10:00,
2013-01-05 03:20:00,50.0,44.4,30.19,WNW,292,1.0,4.0,81,0.00,OVC,,0.00,WeatherDisplay:10.37,2013-01-05 02:20:00,
2013-01-05 03:31:00,50.0,44.4,30.19,WNW,303,0.0,0.0,81,0.00,OVC,,0.00,WeatherDisplay:10.37,2013-01-05 02:31:00,
2013-01-05 03:40:00,49.8,44.2,30.19,WNW,295,0.0,3.0,81,0.00,OVC,,0.00,WeatherDisplay:10.37,2013-01-05 02:40:00,
2013-01-05 03:50:00,49.8,44.5,30.18,WNW,296,2.0,2.0,82,0.00,OVC,,0.00,WeatherDisplay:10.37,2013-01-05 02:50:00,
2013-01-05 04:01:00,49.6,44.4,30.19,WNW,292,0.0,1.0,82,0.00,OVC,,0.00,WeatherDisplay:10.37,2013-01-05 03:01:00,
2013-01-05 04:10:00,49.6,44.0,30.18,NW,312,0.0,5.0,81,0.00,OVC,,0.00,WeatherDisplay:10.37,2013-01-05 03:10:00,
2013-01-05 04:20:00,49.6,44.4,30.18,WNW,299,0.0,3.0,82,0.00,BKN,,0.00,WeatherDisplay:10.37,2013-01-05 03:20:00,
2013-01-05 04:30:00,49.6,44.4,30.18,WNW,292,0.0,3.0,82,0.00,BKN,,0.00,WeatherDisplay:10.37,2013-01-05 03:30:00,
2013-01-05 04:40:00,49.5,43.9,30.18,WNW,300,1.0,2.0,81,0.00,BKN,,0.00,WeatherDisplay:10.37,2013-01-05 03:40:00,
2013-01-05 04:50:00,49.6,44.0,30.18,WNW,299,1.0,4.0,81,0.00,BKN,,0.00,WeatherDisplay:10.37,2013-01-05 03:50:00,
2013-01-05 05:00:00,49.5,43.9,30.18,WNW,292,0.0,1.0,81,0.00,BKN,,0.00,WeatherDisplay:10.37,2013-01-05 04:00:00,
2013-01-05 05:10:00,49.3,43.7,30.18,NNW,330,0.0,1.0,81,0.00,BKN,,0.00,WeatherDisplay:10.37,2013-01-05 04:10:00,
2013-01-05 05:20:00,49.3,43.7,30.18,West,281,0.0,0.0,81,0.00,BKN,,0.00,WeatherDisplay:10.37,2013-01-05 04:20:00,
2013-01-05 05:30:00,49.3,43.7,30.18,WNW,292,0.0,1.0,81,0.00,BKN,,0.00,WeatherDisplay:10.37,2013-01-05 04:30:00,
2013-01-05 05:40:00,49.3,43.7,30.17,NW,313,1.0,1.0,81,0.00,BKN,,0.00,WeatherDisplay:10.37,2013-01-05 04:40:00,
2013-01-05 05:50:00,49.3,43.7,30.18,WNW,292,1.0,1.0,81,0.00,BKN,,0.00,WeatherDisplay:10.37,2013-01-05 04:50:00,
2013-01-05 06:00:00,49.5,43.5,30.17,SW,236,0.0,0.0,80,0.00,BKN,,0.00,WeatherDisplay:10.37,2013-01-05 05:00:00,
2013-01-05 06:11:00,49.5,43.5,30.17,SSW,202,0.0,0.0,80,0.00,BKN,,0.00,WeatherDisplay:10.37,2013-01-05 05:11:00,
2013-01-05 06:20:00,49.3,43.4,30.18,WNW,292,0.0,0.0,80,0.00,BKN,,0.00,WeatherDisplay:10.37,2013-01-05 05:20:00,
2013-01-05 06:30:00,49.3,43.4,30.18,WNW,292,1.0,2.0,80,0.00,BKN,,0.00,WeatherDisplay:10.37,2013-01-05 05:30:00,
2013-01-05 06:41:00,49.3,43.4,30.19,NW,306,0.0,2.0,80,0.00,BKN,,0.00,WeatherDisplay:10.37,2013-01-05 05:41:00,
2013-01-05 06:50:00,49.3,43.4,30.19,West,279,0.0,2.0,80,0.00,BKN,,0.00,WeatherDisplay:10.37,2013-01-05 05:50:00,
2013-01-05 07:00:00,49.3,43.4,30.19,West,281,0.0,0.0,80,0.00,BKN,,0.00,WeatherDisplay:10.37,2013-01-05 06:00:00,
2013-01-05 07:20:00,49.3,43.0,30.20,NW,317,1.0,1.0,79,0.00,BKN,,0.00,WeatherDisplay:10.37,2013-01-05 06:20:00,
2013-01-05 07:30:00,49.1,43.2,30.21,WNW,301,1.0,1.0,80,0.00,BKN,,0.00,WeatherDisplay:10.37,2013-01-05 06:30:00,
2013-01-05 07:41:00,48.9,43.0,30.21,West,259,0.0,0.0,80,0.00,BKN,,0.00,WeatherDisplay:10.37,2013-01-05 06:41:00,
2013-01-05 07:50:00,48.7,42.8,30.22,WSW,241,0.0,0.0,80,0.00,BKN,,0.00,WeatherDisplay:10.37,2013-01-05 06:50:00,
2013-01-05 08:01:00,48.7,43.2,30.22,NNW,348,0.0,0.0,81,0.00,BKN,,0.00,WeatherDisplay:10.37,2013-01-05 07:01:00,
2013-01-05 08:11:00,48.4,42.8,30.22,South,180,0.0,0.0,81,0.00,BKN,,0.00,WeatherDisplay:10.37,2013-01-05 07:11:00,
2013-01-05 08:20:00,48.4,42.8,30.22,West,276,0.0,2.0,81,0.00,BKN,,0.00,WeatherDisplay:10.37,2013-01-05 07:20:00,
2013-01-05 08:30:00,48.2,42.6,30.22,WNW,299,0.0,0.0,81,0.00,BKN,,0.00,WeatherDisplay:10.37,2013-01-05 07:30:00,
2013-01-05 08:40:00,48.0,42.5,30.23,WNW,303,0.0,0.0,81,0.00,BKN,,0.00,WeatherDisplay:10.37,2013-01-05 07:40:00,
2013-01-05 08:51:00,48.4,42.8,30.23,WNW,301,1.0,1.0,81,0.00,BKN,,0.00,WeatherDisplay:10.37,2013-01-05 07:51:00,
2013-01-05 09:00:00,48.4,42.8,30.23,NW,304,0.0,1.0,81,0.00,BKN,,0.00,WeatherDisplay:10.37,2013-01-05 08:00:00,
2013-01-05 09:10:00,48.4,42.8,30.23,West,261,2.0,2.0,81,0.00,BKN,,0.00,WeatherDisplay:10.37,2013-01-05 08:10:00,
2013-01-05 09:20:00,48.4,42.5,30.24,WNW,292,1.0,1.0,80,0.00,BKN,,0.00,WeatherDisplay:10.37,2013-01-05 08:20:00,
2013-01-05 09:40:00,48.6,42.0,30.25,SSW,213,0.0,0.0,78,0.00,BKN,,0.00,WeatherDisplay:10.37,2013-01-05 08:40:00,
2013-01-05 09:50:00,48.6,42.0,30.25,NW,317,5.0,5.0,78,0.00,BKN,,0.00,WeatherDisplay:10.37,2013-01-05 08:50:00,
2013-01-05 10:00:00,48.4,42.2,30.25,NW,325,0.0,3.0,79,0.00,BKN,,0.00,WeatherDisplay:10.37,2013-01-05 09:00:00,
2013-01-05 10:20:00,48.0,42.5,30.25,WNW,292,2.0,3.0,81,0.00,BKN,,0.00,WeatherDisplay:10.37,2013-01-05 09:20:00,
2013-01-05 10:30:00,48.4,42.8,30.25,WNW,303,1.0,4.0,81,0.00,BKN,,0.00,WeatherDisplay:10.37,2013-01-05 09:30:00,
2013-01-05 10:41:00,48.4,42.8,30.25,North,351,1.0,3.0,81,0.00,BKN,,0.00,WeatherDisplay:10.37,2013-01-05 09:41:00,
2013-01-05 10:50:00,48.0,43.1,30.25,WNW,288,2.0,8.0,83,0.00,BKN,,0.00,WeatherDisplay:10.37,2013-01-05 09:50:00,
2013-01-05 11:00:00,47.5,43.2,30.25,North,5,0.0,2.0,85,0.00,BKN,,0.00,WeatherDisplay:10.37,2013-01-05 10:00:00,
2013-01-05 11:10:00,47.8,43.2,30.25,WNW,287,0.0,1.0,84,0.00,BKN,,0.00,WeatherDisplay:10.37,2013-01-05 10:10:00,
2013-01-05 11:20:00,48.0,43.4,30.26,SSW,202,0.0,0.0,84,0.00,BKN,,0.00,WeatherDisplay:10.37,2013-01-05 10:20:00,
2013-01-05 11:30:00,48.4,43.1,30.25,West,277,1.0,1.0,82,0.00,BKN,,0.00,WeatherDisplay:10.37,2013-01-05 10:30:00,
2013-01-05 11:40:00,48.6,42.7,30.26,WNW,292,2.0,3.0,80,0.00,BKN,,0.00,WeatherDisplay:10.37,2013-01-05 10:40:00,
2013-01-05 11:50:00,48.7,42.8,30.26,West,268,1.0,1.0,80,0.00,BKN,,0.00,WeatherDisplay:10.37,2013-01-05 10:50:00,
2013-01-05 12:00:00,48.7,42.5,30.26,WSW,254,0.0,0.0,79,0.00,BKN,,0.00,WeatherDisplay:10.37,2013-01-05 11:00:00,
2013-01-05 12:10:00,48.9,42.4,30.26,WNW,292,1.0,1.0,78,0.00,BKN,,0.00,WeatherDisplay:10.37,2013-01-05 11:10:00,
2013-01-05 12:20:00,49.3,42.0,30.26,ESE,112,1.0,2.0,76,0.00,BKN,,0.00,WeatherDisplay:10.37,2013-01-05 11:20:00,
2013-01-05 12:30:00,49.3,42.0,30.25,West,275,1.0,1.0,76,0.00,BKN,,0.00,WeatherDisplay:10.37,2013-01-05 11:30:00,
2013-01-05 12:41:00,49.3,42.0,30.25,NW,317,0.0,2.0,76,0.00,BKN,,0.00,WeatherDisplay:10.37,2013-01-05 11:41:00,
2013-01-05 13:00:00,48.6,42.3,30.26,WNW,293,3.0,3.0,79,0.00,BKN,,0.00,WeatherDisplay:10.37,2013-01-05 12:00:00,
2013-01-05 13:10:00,48.6,42.3,30.26,WNW,298,0.0,0.0,79,0.00,BKN,,0.00,WeatherDisplay:10.37,2013-01-05 12:10:00,
2013-01-05 13:21:00,48.4,42.5,30.27,NW,304,1.0,3.0,80,0.00,BKN,,0.00,WeatherDisplay:10.37,2013-01-05 12:21:00,
2013-01-05 13:30:00,47.8,42.9,30.26,WNW,298,0.0,0.0,83,0.00,BKN,,0.00,WeatherDisplay:10.37,2013-01-05 12:30:00,
2013-01-05 13:40:00,47.8,42.9,30.27,NW,310,0.0,2.0,83,0.00,BKN,,0.00,WeatherDisplay:10.37,2013-01-05 12:40:00,
2013-01-05 13:50:00,47.8,42.9,30.26,WNW,292,0.0,0.0,83,0.00,BKN,,0.00,WeatherDisplay:10.37,2013-01-05 12:50:00,
2013-01-05 14:01:00,47.7,42.4,30.27,SSW,213,0.0,0.0,82,0.00,BKN,,0.00,WeatherDisplay:10.37,2013-01-05 13:01:00,
2013-01-05 14:11:00,47.7,42.1,30.27,NW,305,1.0,2.0,81,0.00,BKN,,0.00,WeatherDisplay:10.37,2013-01-05 13:11:00,
2013-01-05 14:21:00,47.3,42.4,30.27,WNW,292,2.0,2.0,83,0.00,BKN,,0.00,WeatherDisplay:10.37,2013-01-05 13:21:00,
2013-01-05 14:30:00,46.8,42.8,30.28,NW,319,2.0,2.0,86,0.00,BKN,,0.00,WeatherDisplay:10.37,2013-01-05 13:30:00,
2013-01-05 14:50:00,46.0,42.7,30.30,WNW,282,0.0,2.0,88,0.00,BKN,,0.00,WeatherDisplay:10.37,2013-01-05 13:50:00,
2013-01-05 15:10:00,45.7,42.6,30.30,SW,225,0.0,1.0,89,0.00,BKN,,0.00,WeatherDisplay:10.37,2013-01-05 14:10:00,
2013-01-05 15:20:00,45.5,42.4,30.30,NNW,348,0.0,0.0,89,0.00,BKN,,0.00,WeatherDisplay:10.37,2013-01-05 14:20:00,
2013-01-05 15:31:00,45.5,42.4,30.31,WNW,303,0.0,0.0,89,0.00,OVC,,0.00,WeatherDisplay:10.37,2013-01-05 14:31:00,
2013-01-05 15:40:00,45.3,42.6,30.31,WNW,301,0.0,0.0,90,0.00,OVC,,0.00,WeatherDisplay:10.37,2013-01-05 14:40:00,
2013-01-05 15:50:00,45.0,42.5,30.30,WNW,292,0.0,1.0,91,0.00,OVC,,0.00,WeatherDisplay:10.37,2013-01-05 14:50:00,
2013-01-05 16:00:00,44.8,42.6,30.30,West,281,0.0,0.0,92,0.00,BKN,,0.00,WeatherDisplay:10.37,2013-01-05 15:00:00,
2013-01-05 16:10:00,44.8,42.6,30.30,North,349,0.0,0.0,92,0.00,OVC,,0.00,WeatherDisplay:10.37,2013-01-05 15:10:00,
2013-01-05 16:20:00,44.8,42.6,30.30,WNW,303,0.0,0.0,92,0.00,OVC,,0.00,WeatherDisplay:10.37,2013-01-05 15:20:00,
2013-01-05 16:30:00,44.8,42.6,30.30,WNW,292,0.0,0.0,92,0.00,-RA,,0.00,WeatherDisplay:10.37,2013-01-05 15:30:00,
2013-01-05 16:40:00,44.8,42.6,30.31,NW,309,0.0,0.0,92,0.00,-RA,,0.00,WeatherDisplay:10.37,2013-01-05 15:40:00,
2013-01-05 17:00:00,44.4,42.2,30.31,WSW,248,0.0,1.0,92,0.00,-RA,,0.00,WeatherDisplay:10.37,2013-01-05 16:00:00,
2013-01-05 17:10:00,44.4,42.2,30.30,WNW,292,0.0,0.0,92,0.02,-RA,,0.02,WeatherDisplay:10.37,2013-01-05 16:10:00,
2013-01-05 17:20:00,44.2,42.1,30.30,WNW,292,0.0,0.0,92,0.00,-RA,,0.02,WeatherDisplay:10.37,2013-01-05 16:20:00,
2013-01-05 17:30:00,44.2,42.1,30.30,South,191,0.0,0.0,92,0.00,-RA,,0.02,WeatherDisplay:10.37,2013-01-05 16:30:00,
2013-01-05 17:40:00,44.2,42.1,30.30,SW,225,0.0,0.0,92,0.00,-RA,,0.02,WeatherDisplay:10.37,2013-01-05 16:40:00,
2013-01-05 17:50:00,43.9,41.7,30.31,WNW,292,0.0,0.0,92,0.00,-RA,,0.02,WeatherDisplay:10.37,2013-01-05 16:50:00,
2013-01-05 18:00:00,43.9,41.7,30.30,WNW,292,0.0,0.0,92,0.00,-RA,,0.02,WeatherDisplay:10.37,2013-01-05 17:00:00,
2013-01-05 18:10:00,43.7,41.5,30.31,NW,326,0.0,0.0,92,0.00,-RA,,0.02,WeatherDisplay:10.37,2013-01-05 17:10:00,
2013-01-05 18:20:00,43.7,41.5,30.31,WNW,303,0.0,0.0,92,0.00,-RA,,0.02,WeatherDisplay:10.37,2013-01-05 17:20:00,
2013-01-05 18:31:00,43.9,41.7,30.32,West,281,0.0,0.0,92,0.00,-RA,,0.02,WeatherDisplay:10.37,2013-01-05 17:31:00,
2013-01-05 18:40:00,43.9,41.7,30.32,WNW,296,1.0,2.0,92,0.00,-RA,,0.02,WeatherDisplay:10.37,2013-01-05 17:40:00,
2013-01-05 18:50:00,43.9,41.7,30.32,WNW,301,2.0,2.0,92,0.00,-RA,,0.02,WeatherDisplay:10.37,2013-01-05 17:50:00,
2013-01-05 19:00:00,43.9,41.7,30.32,WNW,292,0.0,0.0,92,0.00,OVC,,0.02,WeatherDisplay:10.37,2013-01-05 18:00:00,
2013-01-05 19:10:00,43.9,41.7,30.32,WNW,292,0.0,0.0,92,0.00,OVC,,0.02,WeatherDisplay:10.37,2013-01-05 18:10:00,
2013-01-05 19:20:00,43.9,41.7,30.32,WNW,292,0.0,0.0,92,0.00,OVC,,0.02,WeatherDisplay:10.37,2013-01-05 18:20:00,
2013-01-05 19:30:00,43.7,41.5,30.33,WNW,302,1.0,1.0,92,0.00,BKN,,0.02,WeatherDisplay:10.37,2013-01-05 18:30:00,
2013-01-05 19:40:00,43.7,41.5,30.33,WNW,303,0.0,0.0,92,0.00,BKN,,0.02,WeatherDisplay:10.37,2013-01-05 18:40:00,
2013-01-05 19:50:00,43.7,41.5,30.32,NW,315,0.0,2.0,92,0.00,BKN,,0.02,WeatherDisplay:10.37,2013-01-05 18:50:00,
2013-01-05 20:01:00,43.7,41.2,30.33,NW,304,0.0,0.0,91,0.00,BKN,,0.02,WeatherDisplay:10.37,2013-01-05 19:01:00,
2013-01-05 20:10:00,43.7,41.2,30.33,NW,315,1.0,1.0,91,0.00,BKN,,0.02,WeatherDisplay:10.37,2013-01-05 19:10:00,
2013-01-05 20:20:00,43.7,41.2,30.33,WNW,303,0.0,0.0,91,0.00,BKN,,0.02,WeatherDisplay:10.37,2013-01-05 19:20:00,
2013-01-05 20:30:00,43.7,41.0,30.33,WNW,292,0.0,2.0,90,0.00,OVC,,0.02,WeatherDisplay:10.37,2013-01-05 19:30:00,
2013-01-05 20:40:00,43.7,41.0,30.34,WNW,292,1.0,1.0,90,0.00,OVC,,0.02,WeatherDisplay:10.37,2013-01-05 19:40:00,
2013-01-05 20:50:00,43.5,40.8,30.34,WNW,298,0.0,0.0,90,0.00,OVC,,0.02,WeatherDisplay:10.37,2013-01-05 19:50:00,
2013-01-05 21:00:00,43.7,40.7,30.34,WNW,300,2.0,2.0,89,0.00,OVC,,0.02,WeatherDisplay:10.37,2013-01-05 20:00:00,
2013-01-05 21:10:00,43.5,40.5,30.34,WNW,303,1.0,1.0,89,0.00,OVC,,0.02,WeatherDisplay:10.37,2013-01-05 20:10:00,
2013-01-05 21:20:00,43.5,40.5,30.34,WNW,292,2.0,2.0,89,0.00,OVC,,0.02,WeatherDisplay:10.37,2013-01-05 20:20:00,
2013-01-05 21:30:00,43.5,40.5,30.34,NNW,327,0.0,0.0,89,0.00,OVC,,0.02,WeatherDisplay:10.37,2013-01-05 20:30:00,
2013-01-05 21:40:00,43.5,40.5,30.34,NW,304,0.0,1.0,89,0.00,OVC,,0.02,WeatherDisplay:10.37,2013-01-05 20:40:00,
2013-01-05 21:51:00,43.5,40.5,30.34,West,281,0.0,0.0,89,0.00,OVC,,0.02,WeatherDisplay:10.37,2013-01-05 20:51:00,
2013-01-05 22:00:00,43.3,40.3,30.33,WNW,292,0.0,0.0,89,0.00,OVC,,0.02,WeatherDisplay:10.37,2013-01-05 21:00:00,
2013-01-05 22:10:00,43.3,40.3,30.34,SW,214,0.0,0.0,89,0.00,OVC,,0.02,WeatherDisplay:10.37,2013-01-05 21:10:00,
2013-01-05 22:20:00,43.3,40.3,30.33,WNW,303,0.0,0.0,89,0.00,OVC,,0.02,WeatherDisplay:10.37,2013-01-05 21:20:00,
2013-01-05 22:30:00,43.3,40.0,30.33,NW,326,0.0,0.0,88,0.00,OVC,,0.02,WeatherDisplay:10.37,2013-01-05 21:30:00,
2013-01-05 22:40:00,43.2,39.8,30.33,NNW,329,0.0,1.0,88,0.00,OVC,,0.02,WeatherDisplay:10.37,2013-01-05 21:40:00,
2013-01-05 22:50:00,43.2,39.8,30.32,WNW,292,0.0,0.0,88,0.00,OVC,,0.02,WeatherDisplay:10.37,2013-01-05 21:50:00,
2013-01-05 23:00:00,43.2,39.8,30.32,NW,307,2.0,2.0,88,0.00,OVC,,0.02,WeatherDisplay:10.37,2013-01-05 22:00:00,
2013-01-05 23:10:00,43.2,39.8,30.32,WNW,292,0.0,0.0,88,0.00,OVC,,0.02,WeatherDisplay:10.37,2013-01-05 22:10:00,
2013-01-05 23:20:00,43.2,39.8,30.32,WNW,292,0.0,0.0,88,0.00,OVC,,0.02,WeatherDisplay:10.37,2013-01-05 22:20:00,
2013-01-05 23:30:00,43.2,39.8,30.32,WSW,243,0.0,0.0,88,0.00,OVC,,0.02,WeatherDisplay:10.37,2013-01-05 22:30:00,
2013-01-05 23:40:00,43.2,39.8,30.32,West,270,0.0,0.0,88,0.00,OVC,,0.02,WeatherDisplay:10.37,2013-01-05 22:40:00,